Weather in Novospassk

Russia / Republic of Tatarstan     55°08′34″N   52°12′34″E
temp.,
°C
wind,
m/s
gust,
m/s
humid.,
%
clouds,
%
prec.,
mm/h
press.,
hPa
HPBL,
m
15 april, thu
thu1500:00+10s33835 0.0 102534
03:00+8s33815 0.0 102426
06:00+9s23715 0.0 102443
09:00+15s46520 0.0 1022362
12:00+19ssw56425 0.0 1021910
15:00+19ssw563785 0.0 10201381
18:00+16ssw225127 0.0 101912
21:00+13s22590 0.0 102010
16 april, fri
fri1600:00+11ssw22650 0.0 102011
03:00+9nne35760 0.0 102164
06:00+7ne71195100 0.0 1022360
09:00+8ene7108497 0.0 1024513
12:00+13ene67624 0.0 1023840
15:00+12ne775813 0.0 1024860
18:00+10ne5107184 0.0 1024506
21:00+8ene511805 0.0 1025381
17 april, sat
sat1700:00+6ne511845 0.0 1026333
03:00+4ne410755 0.0 1026250
06:00+3ne511700 0.0 1027305
09:00+8ne68510 0.0 1027599
12:00+11ne67380 0.0 10261043
15:00+12ne56320 0.0 10261192
18:00+9ne36450 0.0 1025177
21:00+6ne37580 0.0 1025125
18 april, sun
sun1800:00+5ne22620 0.0 102527
03:00+3nne22670 0.0 102513
06:00+4nne24702 0.0 1024139
09:00+9nne345123 0.0 1024733
12:00+11nne5641100 0.0 10231391
15:00+11ne6644100 0.0 10231720
18:00+7ne7956100 0.0 1025891
21:00+4ne7134587 0.0 1026703
19 april, mon
mon1900:00+2ene71355100 0.0 1027699
03:000ene8146093 0.0 1029623
06:000ene814551 0.0 1030780
09:00+3e1012360 0.0 10311348
12:00+5ene911295 0.0 10311658
15:00+6ene810260 0.0 10311728
18:00+4ene710330 0.0 10321210
21:00+2ene612390 0.0 1033539